Regional Weather Roundup
Issued by NWS

Home | Current Version | Previous Version | Text Only | Print | Product List | Glossary Off
Versions: 1 2 3 4 5 6 7 8 9 10 11 12 13 14 15 16 17 18 19 20 21 22 23 24 25 26 27 28 29 30 31 32 33 34 35 36 37 38 39 40 41 42 43 44 45 46 47 48 49 50

000
ASUS43 KLMK 242010
RWRKY
KENTUCKY REGIONAL WEATHER ROUNDUP
NATIONAL WEATHER SERVICE LOUISVILLE KY
400 PM EDT TUE APR 24 2018

NOTE "FAIR" INDICATES FEW OR NO CLOUDS BELOW 12,000 FEET
WITH NO SIGNIFICANT WEATHER AND/OR OBSTRUCTIONS TO VISIBILITY.

KYZ001>023-026-027-061>063-070>075-242100-
WESTERN AND SOUTH CENTRAL KENTUCKY

CITY           SKY/WX    TMP DP  RH WIND       PRES   REMARKS
PADUCAH        CLOUDY    62  55  77 N9        29.94F
HENDERSON      CLOUDY    57  54  89 NW9       29.94F
OWENSBORO      LGT RAIN  57  54  89 NW9       29.93S
HOPKINSVILLE   NOT AVBL
BOWLING GREEN  LGT RAIN  60  55  83 NW6G17    29.90S
GLASGOW        CLOUDY    60  55  82 W10       29.88S
$$

KYZ024-025-028>034-038-045-046-053-242100-
NORTH CENTRAL KENTUCKY

CITY           SKY/WX    TMP DP  RH WIND       PRES   REMARKS
LOUISVILLE/SDF LGT RAIN  58  54  86 NW7       29.89F
LOUISVILLE/LOU LGT RAIN  57  56  96 NW5       29.90S
FORT KNOX      CLOUDY    57  55  94 N7        29.90S
$$

KYZ035>037-039>044-047>052-055>060-089>105-242100-
NORTHEAST KENTUCKY

CITY           SKY/WX    TMP DP  RH WIND       PRES   REMARKS
LEXINGTON      CLOUDY    58  53  84 N3        29.88F
COVINGTON      DRIZZLE   55  55 100 NE9       29.89F FOG
FRANKFORT      CLOUDY    58  53  84 CALM      29.87F
$$

KYZ054-064>069-076>088-106>120-242100-
SOUTHEAST KENTUCKY

CITY           SKY/WX    TMP DP  RH WIND       PRES   REMARKS
JACKSON        CLOUDY    60  53  77 CALM      29.86F
LONDON         CLOUDY    63  54  72 N5        29.85F
SOMERSET       PTSUNNY   63  52  67 MISG      29.87F
MIDDLESBORO    FAIR      65  54  66 SE3       29.83F
MONTICELLO     CLOUDY    64  53  67 N15       29.87F
$$




USA.gov is the U.S. government's official web portal to all federal, state and local government web resources and services.